Location: Observatoire
(46.1952°N, 5.3391°E)
Time: 22:52:13
(UTC+01:00)

Tiros 1 despin weight - Pass Details

Date: 18 February 2026
Orbit: 556 x 593 km, 48.2° (Epoch: 7 March)

Event Time Altitude Azimuth Distance (km) Brightness Sun altitude
Rises 14:46:19 0° 208° (SSW) 2,736 ? 26.9°
Reaches altitude 10° 14:48:55 10° 194° (SSW) 1,838 ? 26.7°
Maximum altitude 14:52:13 22° 142° (SE) 1,223 ? 26.4°
Drops below altitude 10° 14:55:30 10° 90° (E) 1,837 ? 26.1°
Sets 14:58:06 0° 75° (ENE) 2,734 ? 25.8°
